Regional Weather Roundup
Issued by NWS Sioux Falls, SD

Home | Current Version | Previous Version | Graphics & Text | Print | Product List | Glossary Off
Versions: 1 2 3 4 5 6 7 8 9 10 11 12 13 14 15 16 17 18 19 20 21 22 23 24 25 26 27 28 29 30 31 32 33 34 35 36 37 38 39 40 41 42 43 44 45 46 47 48 49 50

000
ASUS43 KFSD 041402
RWRFSD

WEATHER ROUNDUP FOR SE SOUTH DAKOTA/SW MINNESOTA/NW IOWA
NATIONAL WEATHER SERVICE SIOUX FALLS SD
800 AM CST WED MAR 04 2015

NOTE: "FAIR" INDICATES FEW OR NO CLOUDS BELOW 12,000 FEET WITH NO
SIGNIFICANT WEATHER AND OR OBSTRUCTIONS TO VISIBILITY.


SDZ038>040-050-052>070-041500-
SOUTHEAST SOUTH DAKOTA

CITY           SKY/WX    TMP DP  RH WIND       PRES   REMARKS
CHAMBERLAIN    NOT AVBL
HURON          CLEAR      4  -4  69 NW18      30.22R WCI -16
MADISON        FAIR       0   0 100 SW10      30.14R WCI -17
MITCHELL       CLEAR      6  -2  69 NW15      30.24R WCI -12
SIOUX FALLS    PTCLDY     3  -2  79 W5        30.18R WCI  -6
WINNER         FAIR       5  -7  57 NW10      30.23R WCI -10
YANKTON        CLEAR     10   3  72 SW10      30.23R WCI  -3
$$

MNZ071-072-080-081-089-090-097-098-041500-
SOUTHWEST MINNESOTA

CITY           SKY/WX    TMP DP  RH WIND       PRES   REMARKS
FAIRMONT       MOSUNNY    3  -6  66 W8        30.18R WCI -10
JACKSON        SUNNY      1  -8  66 W6        30.17R WCI -10
LUVERNE        SUNNY      1  -4  78 CALM      30.18S
MARSHALL       MOSUNNY    0  -9  65 CALM      30.19R
MONTEVIDEO     CLOUDY     0  -6  78 CALM      30.22R
PIPESTONE      SUNNY     -6  -9  84 CALM      30.14R
REDWOOD FALLS  MOSUNNY   -2 -10  69 W7        30.20R WCI -15
TRACY          SUNNY     -1  -8  72 SW7       30.18R WCI -14
WINDOM         SUNNY      0  -8  71 W3        30.17R
WORTHINGTON    SUNNY      0  -6  78 W7        30.18R WCI -13
$$

IAZ001>003-012>014-020>022-031-032-NEZ013-014-SDZ071-041500-
NORTHWEST IOWA

CITY           SKY/WX    TMP DP  RH WIND       PRES   REMARKS
DENISON        MOSUNNY   10   5  79 CALM      30.22S
ESTHERVILLE    SUNNY      2  -5  72 W6        30.19R WCI  -9
SIOUX CITY     SUNNY     14   6  70 W7        30.25R WCI   4
SPENCER        SUNNY      6  -3  66 W8        30.20R WCI  -7
$$

ABBREVIATIONS USED IN REMARKS
   TC - TEMPERATURE IN CELSIUS
  WCI - WIND CHILL INDEX
   HX - HEAT INDEX
  VSB - VISIBILITY



USA.gov is the U.S. government's official web portal to all federal, state and local government web resources and services.